Location: *
(40.4270°N, 9.4940°E)
Time: 03:33:54
(UTC+01:00)

Daily predictions for brighter satellites

Satellite Brightness Start Highest point End
(mag) Time Altitude Azimuth Time Altitude Azimuth Time Altitude Azimuth
Lacrosse 5 4.4 03:44:29 17° E 03:44:29 17° E 03:46:28 10° ENE
ATLAS 5 CENTAUR R/B 4.0 03:54:17 22° E 03:54:17 22° E 03:56:50 10° NE
CZ-4B R/B 4.5 03:51:58 10° NNE 03:55:46 38° NE 03:55:46 38° NE
Cosmos 1943 Rocket 3.8 03:59:52 27° ESE 04:00:36 27° ESE 04:05:13 10° NE
ATLAS CENTAUR R/B 3.4 04:07:01 72° NE 04:07:05 72° NE 04:20:45 10° SE
Cosmos 2266 Rocket 4.2 04:11:42 10° N 04:17:49 65° E 04:23:49 10° SSE
Okean O Rocket 4.4 04:20:56 10° N 04:21:01 10° N 04:21:01 10° N
Cosmos 1624 Rocket 4.5 04:26:29 59° ENE 04:26:29 59° ENE 04:31:13 10° NNE
Cosmos 2056 Rocket 4.0 04:27:38 56° E 04:27:38 56° E 04:32:13 10° NNE
USA 234 3.1 04:37:25 10° NE 04:43:57 76° NW 04:44:59 63° W
CZ-4C R/B 3.8 04:44:02 10° S 04:48:25 30° ESE 04:53:18 10° NE
ADEOS II 2.6 04:46:03 10° N 04:49:57 47° NNW 04:49:57 47° NNW
Cosmos 2369 Rocket 2.5 04:52:50 49° NNW 04:52:50 49° NNW 04:57:37 10° NNE
Thor Agena Rocket 4.0 04:48:00 10° SSE 04:53:08 60° ENE 04:58:14 10° N
Cosmos 1371 Rocket 4.3 04:56:16 49° NNW 04:56:16 49° NNW 05:00:24 10° N
Meteor 1-31 Rocket 2.9 04:57:49 10° NNE 05:01:24 69° NE 05:01:24 69° NE
Cosmos 1452 Rocket 4.1 05:03:27 10° S 05:08:37 58° ESE 05:13:48 10° NNE
Sich 1 Rocket 3.5 05:05:14 10° N 05:09:48 87° W 05:14:17 10° S
Cosmos 1833 4.2 05:05:51 10° NNW 05:11:28 80° ENE 05:17:04 10° SSE
CZ-4B R/B 3.7 05:09:22 10° N 05:13:20 83° W 05:14:09 56° SSW
Okean-O 2.5 05:12:46 10° N 05:17:12 70° WNW 05:18:48 38° SSW
Okean 1-7 3.7 05:13:56 10° S 05:18:06 54° E 05:22:17 10° NNE
Cosmos 1908 Rocket 3.4 05:13:52 10° NNW 05:18:21 74° W 05:22:48 10° S
Abrixas 4.2 05:23:27 24° NNE 05:23:27 24° NNE 05:25:11 10° NE
Cosmos 1782 Rocket 3.8 05:19:14 10° N 05:23:43 73° E 05:28:09 10° SSE
S3M 4.4 05:18:26 10° S 05:24:42 65° E 05:30:56 10° NNE
Lacrosse 5 1.8 05:23:44 41° WSW 05:25:28 70° NW 05:30:33 10° NE
Cosmos 407 Rocket 3.5 05:23:03 10° NNW 05:28:20 60° WSW 05:33:33 10° S
Cosmos 676 Rocket 3.9 05:25:13 10° NNW 05:30:33 83° WSW 05:35:52 10° SSE
Cosmos 1553 Rocket 4.1 05:27:13 10° S 05:33:21 79° E 05:39:39 10° N
SKYMED 2 3.7 05:29:10 10° SSE 05:33:29 75° ENE 05:37:50 10° N
Meteor 1-14 Rocket 4.2 05:28:47 10° N 05:34:39 87° W 05:40:21 10° S
ATLAS 5 CENTAUR R/B 2.4 05:35:52 32° W 05:37:07 38° NW 05:41:56 10° NNE
CZ-4B R/B 4.3 05:33:15 10° NNW 05:37:38 24° WNW 05:37:40 24° WNW
Tiangong 1 1.4 05:37:24 44° SSW 05:37:56 52° SSE 05:40:48 10° E
Lacrosse 5 rocket 3.9 05:40:38 10° N 05:41:22 10° NNE 05:42:06 10° NNE
Okean 2 Rocket 3.0 05:38:19 10° N 05:42:44 86° E 05:47:08 10° S
Cosmos 1943 Rocket 2.6 05:41:28 24° WSW 05:44:07 40° WNW 05:49:21 10° N
Meteor 2-10 Rocket 3.5 05:42:42 10° SSW 05:47:34 52° WNW 05:52:29 10° N
Cosmos 1140 Rocket 3.4 05:47:38 10° NNW 05:52:54 86° WSW 05:58:08 10° SSE
Cosmos 1703 Rocket 4.1 05:53:33 10° SW 05:57:27 33° WNW 06:01:26 10° NNW
CSL-04 Rocket 4.2 05:55:57 10° NNE 06:01:18 64° ESE 06:06:41 10° S
Cosmos 2151 Rocket 4.1 05:57:03 10° N 06:01:34 64° E 06:06:00 10° SSE
Cosmos 1782 2.7 05:59:06 10° S 06:03:03 89° WNW 06:07:03 10° N
Cosmos 614 Rocket 3.9 05:59:41 10° NNW 06:04:48 89° WSW 06:09:56 10° SSE
Meteor 1-28 Rocket 3.2 06:05:34 10° S 06:09:12 54° W 06:12:53 10° NNW
Meteor 1-25 Rocket 4.3 06:03:42 10° NNW 06:09:27 63° W 06:15:12 10° S
IDEFIX/ARIANE 42P 3.8 06:05:10 10° NNE 06:10:13 47° E 06:15:13 10° S
Cosmos 1850 Rocket 4.1 06:07:05 10° NNW 06:12:28 89° ENE 06:17:46 10° SSE
PAYLOAD A 4.1 06:09:09 10° NNE 06:13:53 72° ESE 06:18:41 10° S
Cosmos 2297 Rocket 4.1 06:13:51 10° N 06:18:47 30° ENE 06:23:41 10° ESE
Cosmos 1633 3.5 06:16:59 10° N 06:20:33 52° E 06:24:04 10° SSE
COSMO-SKYMED 1 3.3 06:17:46 10° SSW 06:21:37 31° W 06:25:29 10° NW
CZ-2C R/B 3.2 06:16:47 10° NNE 06:21:37 59° E 06:26:33 10° S
Cosmos 1745 Rocket 4.1 06:17:04 10° NNW 06:23:01 52° W 06:28:55 10° SSW
Meteor 1-11 Rocket 4.4 06:18:34 10° N 06:24:31 64° ENE 06:30:21 10° SSE
Ariane Rocket 3.0 06:20:37 10° N 06:25:40 65° WNW 06:30:41 10° SSW
USA 234 4.3 06:20:50 10° NE 06:26:19 30° NNW 06:31:48 10° W
Meteor 1-10 Rocket 4.2 06:21:15 10° SSW 06:26:45 67° W 06:32:22 10° N
Cosmos 1420 Rocket 4.3 06:22:35 10° SW 06:27:31 45° WNW 06:32:30 10° N
SMAP 4.1 06:23:29 10° NNE 06:28:02 51° E 06:32:33 10° S
CSL-04 Debris 4.2 06:23:09 10° NNE 06:28:36 85° WNW 06:33:58 10° SSW
Cosmos 2219 3.3 06:24:16 10° NNW 06:29:48 56° WSW 06:35:17 10° S
CZ-4 R/B 2.0 06:25:41 10° NNE 06:29:50 65° E 06:33:55 10° S
Cosmos 1606 2.8 06:26:40 10° SSW 06:30:25 53° W 06:34:15 10° N
SeaSat 1 4.3 06:31:13 10° NE 06:35:46 36° ESE 06:40:18 10° S
CZ-4C R/B 2.7 06:31:37 10° WSW 06:36:39 41° NW 06:42:20 10° NNE
Cosmos 2227 Rocket 3.1 06:33:01 10° NNW 06:38:36 54° ENE 06:44:08 10° SE
